[[{"header":{"parameterUnit":"m.s-1","parameterCategory":1,"la1":30.2991,"la2":30.254,"lo1":-89.0895,"lo2":-89.0444,"dy":0.0017,"dx":0.0017,"nx":28,"ny":28,"refTime":"2025-03-13T09:00:00:Z","depth":0,"parameterNumber":2,"parameterNumberName":"U-component_of_WINDS"},"data":[0,0,0,0,0,0,0,0,0,0,0,0,0,0,0,0,0,0,0,0,0,0,0,0,0,0,0,0,0,0,0,0,0,0,0,0,0,0,0,0,0,0,0,0,0,0,0,0,0,0,0,0,0,0,0,0,0,0,-1.8919,-1.8919,0,-1.8905,-1.8905,-1.8905,-1.8889,-1.8889,-1.8889,-1.8889,-1.8875,-1.8875,-1.8874,0,0,0,0,0,0,0,0,0,0,0,0,0,-1.893,-1.893,-1.8919,-1.8919,-1.8919,-1.8906,-1.8905,-1.8905,-1.8889,-1.8889,-1.8889,-1.8889,-1.8875,-1.8875,-1.8874,0,0,0,0,0,0,0,0,0,0,0,0,0,-1.8922,-1.893,-1.8919,-1.8909,-1.8908,-1.8906,-1.8905,-1.8905,-1.8889,-1.8889,-1.8889,-1.8888,-1.8875,-1.8875,-1.8874,-1.888,0,0,-1.8874,-1.8874,0,0,0,0,0,0,0,0,-1.8923,-1.8922,-1.8911,-1.891,-1.8909,-1.8899,-1.8904,-1.8897,-1.889,-1.8897,-1.8889,-1.8888,-1.8883,-1.8882,-1.888,-1.888,-1.8879,-1.8874,-1.8874,-1.8873,-1.8873,0,0,0,0,0,0,0,-1.8923,-1.8922,-1.8914,-1.8911,-1.8909,-1.8905,-1.8904,-1.8903,-1.8892,-1.8896,-1.8895,-1.8893,-1.8882,-1.8881,-1.888,-1.8879,-1.8874,-1.8874,-1.8873,-1.8873,-1.8882,-1.8882,0,0,0,0,0,0,-1.8925,-1.8923,-1.8914,-1.8913,-1.8915,-1.8905,-1.8904,-1.8902,-1.8892,-1.889,-1.8894,-1.8893,-1.8881,-1.888,-1.8879,-1.8885,-1.8873,-1.8873,-1.8873,-1.8881,-1.8882,-1.8882,0,0,0,0,0,0,-1.8926,-1.8925,-1.8915,-1.8918,-1.8916,-1.8906,-1.8904,-1.8902,-1.89,-1.889,-1.8888,-1.8894,-1.8881,-1.888,-1.888,-1.8884,-1.8873,-1.8873,-1.8881,-1.8881,-1.8882,-1.8896,0,0,0,0,0,0,-1.8926,-1.8925,-1.8927,-1.8918,-1.8916,-1.8916,-1.8904,-1.8902,-1.89,-1.8899,-1.889,-1.8888,-1.888,-1.888,-1.888,-1.8884,-1.8873,-1.888,-1.8881,-1.8882,-1.8896,-1.8897,-1.8899,0,0,0,0,0,-1.8926,-1.8932,-1.8927,-1.8926,-1.8918,-1.8916,-1.8915,-1.8906,-1.8901,-1.8902,-1.8896,-1.8888,-1.8884,-1.8881,-1.888,-1.8884,-1.888,-1.8881,-1.8882,-1.8895,-1.8897,-1.8899,0,0,0,0,0,0,-1.8942,-1.893,-1.8925,-1.8928,-1.8923,-1.8913,-1.8915,-1.8909,-1.8905,-1.8904,-1.8893,-1.8891,-1.8893,-1.8888,-1.8885,-1.8889,-1.8881,-1.8882,-1.8891,-1.8893,-1.8895,-1.8896,-1.8873,0,0,0,0,0,-1.8945,-1.8944,-1.8934,-1.8938,-1.8935,-1.8926,-1.8924,-1.8918,-1.8913,-1.891,-1.8904,-1.8899,-1.8896,-1.8895,-1.8892,-1.8895,-1.8893,-1.8897,-1.8899,-1.8901,-1.8901,-1.8902,-1.8904,-1.8885,-1.8885,-1.8885,0,0,-1.8953,-1.8947,-1.8946,-1.894,-1.8936,-1.8935,-1.8924,-1.8924,-1.8923,-1.891,-1.891,-1.8905,-1.8899,-1.89,-1.8901,-1.8897,-1.8906,-1.8902,-1.8903,-1.8902,-1.8903,-1.8905,-1.8906,-1.8885,-1.8885,-1.8885,0,0,-1.8966,-1.8961,-1.8963,-1.8959,-1.8952,-1.8946,-1.8946,-1.8937,-1.8934,-1.8933,-1.8924,-1.8923,-1.8919,-1.8914,-1.8911,-1.8923,-1.8915,-1.8922,-1.8931,-1.8932,-1.8933,-1.8934,-1.8938,-1.8939,-1.8923,-1.8923,-1.8923,0,-1.8976,-1.8974,-1.8965,-1.8964,-1.8962,-1.8951,-1.8952,-1.8949,-1.8942,-1.894,-1.8936,-1.893,-1.8925,-1.8925,-1.8928,-1.8926,-1.8926,-1.8923,-1.8934,-1.8935,-1.8936,-1.8939,-1.894,-1.8924,-1.8923,-1.8923,-1.8923,0,-1.8986,-1.8985,-1.8987,-1.898,-1.8978,-1.8979,-1.897,-1.8968,-1.8962,-1.8957,-1.8956,-1.895,-1.8945,-1.8945,-1.8939,-1.8944,-1.8942,-1.8936,-1.8928,-1.8939,-1.8941,-1.8942,-1.8925,-1.8924,-1.8924,-1.8924,0,0,-1.9007,-1.8996,-1.8996,-1.8993,-1.8985,-1.8984,-1.8984,-1.8979,-1.8978,-1.8974,-1.8973,-1.897,-1.8965,-1.8961,-1.8955,-1.8956,-1.8964,-1.895,-1.895,-1.8952,-1.8969,-1.8973,-1.8974,-1.896,-1.896,-1.896,-1.8969,0,-1.9018,-1.9017,-1.9009,-1.9011,-1.9009,-1.8999,-1.8999,-1.8994,-1.8989,-1.8987,-1.8981,-1.8978,-1.8971,-1.8969,-1.897,-1.8963,-1.8967,-1.8963,-1.8959,-1.8959,-1.896,-1.8975,-1.898,-1.8988,-1.897,-1.897,-1.897,0,-1.903,-1.9026,-1.9027,-1.9019,-1.9018,-1.9018,-1.9013,-1.9012,-1.9006,-1.9002,-1.8998,-1.8991,-1.899,-1.8984,-1.8982,-1.8979,-1.8977,-1.8973,-1.8974,-1.8972,-1.8964,-1.8974,-1.8991,-1.8992,-1.8972,-1.8972,-1.8972,0,-1.9044,-1.9039,-1.9039,-1.9037,-1.9028,-1.9028,-1.9024,-1.9018,-1.9015,-1.9011,-1.9009,-1.9005,-1.9003,-1.9,-1.8991,-1.8987,-1.899,-1.8983,-1.8986,-1.8987,-1.8987,-1.8987,-1.9003,-1.8987,-1.8987,-1.8987,-1.8987,0,-1.9056,-1.9057,-1.9046,-1.9046,-1.9047,-1.9038,-1.9039,-1.9034,-1.9028,-1.9027,-1.9018,-1.9017,-1.9007,-1.9004,-1.8998,-1.8997,-1.8996,-1.8993,-1.8991,-1.8993,-1.8993,-1.8991,-1.8989,-1.8987,-1.8987,-1.8987,-1.8987,0,-1.9071,-1.9064,-1.9063,-1.9055,-1.9052,-1.9053,-1.9046,-1.9045,-1.904,-1.9038,-1.9037,-1.9028,-1.9025,-1.9016,-1.9011,-1.9006,-1.9007,-1.9004,-1.9009,-1.9008,-1.9011,-1.9011,-1.9026,-1.9027,-1.9011,-1.9011,-1.9012,0,-1.9079,-1.908,-1.9071,-1.907,-1.9066,-1.9064,-1.9062,-1.9053,-1.9051,-1.9044,-1.9044,-1.904,-1.9037,-1.9032,-1.9024,-1.902,-1.9017,-1.9022,-1.9016,-1.9018,-1.9016,-1.9015,-1.9015,-1.9023,-1.9023,-1.9024,-1.9024,0,-1.9093,-1.909,-1.9087,-1.9082,-1.908,-1.9076,-1.9072,-1.9071,-1.9061,-1.9059,-1.9056,-1.9053,-1.9048,-1.9044,-1.9038,-1.9034,-1.9027,-1.9026,-1.9026,-1.9028,-1.9031,-1.9028,-1.9012,-1.9025,-1.9025,-1.9025,-1.9025,-1.9025,-1.9104,-1.9104,-1.9098,-1.9095,-1.9091,-1.9087,-1.9086,-1.9081,-1.9078,-1.9073,-1.9068,-1.9065,-1.9058,-1.905,-1.9047,-1.9044,-1.904,-1.9041,-1.9041,-1.9041,-1.9042,-1.9032,-1.9043,-1.9043,-1.9043,-1.9043,-1.9043,0,-1.9117,-1.9113,-1.911,-1.9105,-1.9102,-1.9097,-1.9092,-1.909,-1.9087,-1.9082,-1.9079,-1.9075,-1.9071,-1.9064,-1.9059,-1.9058,-1.9055,-1.9057,-1.9057,-1.9056,-1.9046,-1.9045,-1.906,-1.906,-1.906,-1.906,-1.906,-1.906,-1.9124,-1.9123,-1.9119,-1.9116,-1.9112,-1.9109,-1.9106,-1.9103,-1.9098,-1.9094,-1.9091,-1.9086,-1.908,-1.9075,-1.9071,-1.9069,-1.9067,-1.907,-1.9067,-1.9058,-1.9056,-1.9055,-1.9054,-1.907,-1.907,-1.9077,-1.9077,-1.9077]},{"header":{"parameterUnit":"m.s-1","parameterCategory":1,"la1":30.2991,"la2":30.254,"lo1":-89.0895,"lo2":-89.0444,"dy":0.0017,"dx":0.0017,"nx":28,"ny":28,"refTime":"2025-03-13T09:00:00:Z","depth":0,"parameterNumber":3,"parameterNumberName":"V-component_of_WINDS"},"data":[0,0,0,0,0,0,0,0,0,0,0,0,0,0,0,0,0,0,0,0,0,0,0,0,0,0,0,0,0,0,0,0,0,0,0,0,0,0,0,0,0,0,0,0,0,0,0,0,0,0,0,0,0,0,0,0,0,0,2.6671,2.6672,0,2.6764,2.6765,2.6766,2.6749,2.6747,2.6745,2.6744,2.6839,2.6843,2.6847,0,0,0,0,0,0,0,0,0,0,0,0,0,2.6478,2.6481,2.6671,2.6672,2.6673,2.6764,2.6765,2.6767,2.6749,2.6747,2.6745,2.6743,2.6838,2.6843,2.6847,0,0,0,0,0,0,0,0,0,0,0,0,0,2.6565,2.6483,2.667,2.6675,2.6677,2.6764,2.6765,2.6767,2.6749,2.6747,2.6744,2.6742,2.6836,2.6842,2.6848,2.6936,0,0,2.6867,2.687,0,0,0,0,0,0,0,0,2.656,2.6573,2.6673,2.6675,2.6677,2.6742,2.6732,2.6824,2.675,2.6722,2.6744,2.6741,2.6809,2.6817,2.684,2.6941,2.6945,2.6867,2.6871,2.6874,2.6876,0,0,0,0,0,0,0,2.6554,2.6568,2.6708,2.6675,2.6677,2.6673,2.6683,2.675,2.6778,2.6724,2.6723,2.6734,2.6809,2.6834,2.6842,2.6946,2.6867,2.6873,2.6877,2.6879,2.7128,2.7131,0,0,0,0,0,0,2.6547,2.6563,2.6705,2.671,2.6611,2.6678,2.6689,2.6724,2.6777,2.6783,2.6736,2.6733,2.6825,2.6835,2.6845,2.6956,2.6874,2.688,2.6883,2.7125,2.7129,2.7132,0,0,0,0,0,0,2.6543,2.656,2.6701,2.6637,2.6654,2.6684,2.6723,2.6727,2.6752,2.6787,2.6792,2.6757,2.6823,2.6837,2.6915,2.6958,2.6882,2.6888,2.7122,2.7126,2.713,2.7174,0,0,0,0,0,0,2.6537,2.6558,2.6592,2.6638,2.6658,2.6769,2.6726,2.673,2.6763,2.6759,2.6807,2.6813,2.6822,2.6906,2.6921,2.6966,2.6893,2.7118,2.7124,2.7129,2.7169,2.718,2.7189,0,0,0,0,0,2.653,2.66,2.6594,2.6611,2.6701,2.6771,2.6783,2.6793,2.6766,2.6801,2.6823,2.6811,2.6951,2.6914,2.6931,2.6978,2.7115,2.7122,2.7128,2.7165,2.7178,2.7188,0,0,0,0,0,0,2.6557,2.6606,2.6599,2.6685,2.6724,2.6768,2.6812,2.6805,2.6852,2.6847,2.6857,2.6869,2.6949,2.697,2.6929,2.7068,2.7029,2.704,2.7051,2.7064,2.7073,2.7068,2.6898,0,0,0,0,0,2.6573,2.6626,2.6665,2.6738,2.6758,2.6781,2.6812,2.6817,2.6858,2.6874,2.6902,2.6942,2.6995,2.703,2.7081,2.7171,2.7183,2.7212,2.7222,2.723,2.724,2.7293,2.7307,2.7153,2.7153,2.7153,0,0,2.6607,2.664,2.6672,2.6744,2.6775,2.6831,2.6795,2.6855,2.6897,2.6883,2.6959,2.6981,2.7027,2.7113,2.7152,2.7133,2.7284,2.7238,2.7244,2.725,2.7301,2.7315,2.7328,2.7158,2.7157,2.7156,0,0,2.6697,2.6726,2.6791,2.6823,2.687,2.6886,2.6902,2.6947,2.6961,2.7038,2.703,2.7079,2.717,2.7204,2.7233,2.7338,2.733,2.7354,2.7406,2.7457,2.747,2.748,2.7521,2.7535,2.7363,2.7363,2.7363,0,2.6733,2.6817,2.6825,2.6887,2.692,2.691,2.6977,2.7007,2.7069,2.7092,2.707,2.7186,2.7215,2.731,2.7336,2.7359,2.7379,2.735,2.7467,2.7478,2.7488,2.7527,2.7542,2.7366,2.7365,2.7365,2.7365,0,2.686,2.6918,2.6965,2.7026,2.7064,2.7127,2.7147,2.7184,2.7185,2.7203,2.7283,2.7318,2.7378,2.74,2.7401,2.7496,2.7484,2.7464,2.7426,2.7506,2.7543,2.7558,2.737,2.7369,2.7368,2.7367,0,0,2.6971,2.7037,2.7054,2.7083,2.7135,2.7181,2.7245,2.7303,2.7336,2.7379,2.7434,2.7512,2.7495,2.7528,2.7533,2.7578,2.7663,2.7553,2.7555,2.7576,2.7774,2.7791,2.7808,2.7657,2.766,2.7662,2.7772,0,2.7069,2.7183,2.7193,2.7296,2.7351,2.7343,2.7399,2.7438,2.7457,2.7507,2.7527,2.7584,2.7555,2.7576,2.762,2.7644,2.7704,2.7635,2.7711,2.7714,2.7703,2.7827,2.7844,2.7946,2.7786,2.7788,2.779,0,2.7198,2.7247,2.7355,2.7402,2.7426,2.7476,2.7532,2.758,2.7624,2.7634,2.7672,2.7672,2.7739,2.7697,2.7791,2.7744,2.7775,2.7792,2.7796,2.7806,2.7759,2.7843,2.7978,2.7995,2.7812,2.781,2.7809,0,2.7273,2.7364,2.7442,2.7467,2.7522,2.7559,2.7584,2.7625,2.7661,2.7709,2.7733,2.7788,2.7819,2.7862,2.7877,2.7844,2.7972,2.793,2.7985,2.7985,2.8014,2.8013,2.816,2.8029,2.8029,2.8028,2.8028,0,2.7383,2.7451,2.7477,2.7525,2.7601,2.7612,2.7688,2.771,2.7748,2.7801,2.7796,2.7846,2.7861,2.7915,2.7926,2.8005,2.8018,2.803,2.8033,2.8032,2.8031,2.8055,2.805,2.8032,2.8032,2.8031,2.803,0,2.748,2.75,2.7585,2.7631,2.7645,2.7699,2.7739,2.7786,2.7804,2.7872,2.7888,2.7917,2.798,2.7998,2.8073,2.8081,2.8174,2.8168,2.816,2.8161,2.8216,2.8212,2.8386,2.8411,2.8261,2.8262,2.8263,0,2.7551,2.7603,2.7656,2.7692,2.7719,2.7775,2.7812,2.7825,2.7864,2.7919,2.796,2.8022,2.8073,2.8173,2.8201,2.8259,2.8257,2.8314,2.8266,2.8265,2.8262,2.8261,2.8267,2.8324,2.8326,2.8327,2.8328,0,2.7676,2.7684,2.7737,2.7794,2.7839,2.7884,2.7928,2.7957,2.7977,2.802,2.8085,2.8124,2.8201,2.8264,2.8323,2.8349,2.8344,2.8343,2.8359,2.8361,2.8355,2.8363,2.8188,2.8339,2.8338,2.8337,2.8337,2.8336,2.7764,2.7812,2.7857,2.7917,2.7952,2.7994,2.8041,2.8066,2.812,2.8185,2.8188,2.8259,2.8304,2.8383,2.8412,2.8468,2.8452,2.8474,2.8481,2.8487,2.8494,2.8344,2.8478,2.8478,2.8478,2.8477,2.8477,0,2.7892,2.7921,2.7976,2.8039,2.8087,2.8076,2.8125,2.8166,2.8228,2.827,2.8321,2.8396,2.8457,2.849,2.8551,2.859,2.8589,2.8606,2.8605,2.8612,2.8503,2.8485,2.8606,2.8606,2.8606,2.8606,2.8606,2.8606,2.7965,2.8046,2.8059,2.8157,2.8186,2.8256,2.8285,2.8324,2.8358,2.8443,2.8494,2.8515,2.8554,2.8619,2.8675,2.8683,2.8707,2.8727,2.8734,2.8632,2.8619,2.8607,2.859,2.8731,2.8731,2.8838,2.8839,2.884]}]]